timestamp,wind_dir_avg,wind_spd_avg,wind_spd_max_dir,wind_spd_gust,battery_voltage,lat,long
2021-07-21 00:04:01+00:00,213.0,8.74,215.0,10.04,12.73,47.59359,-54.27349
2021-07-21 00:14:01+00:00,211.0,8.26,214.0,9.2,12.65,47.59359,-54.27349
2021-07-21 00:24:01+00:00,210.0,8.51,211.0,9.48,12.65,47.59359,-54.27349
2021-07-21 00:34:01+00:00,210.0,8.67,209.0,9.68,12.65,47.59359,-54.27349
2021-07-21 00:44:01+00:00,212.0,9.06,213.0,10.77,12.65,47.59359,-54.27349
2021-07-21 00:54:01+00:00,209.0,8.49,205.0,9.67,12.65,47.59359,-54.27349
2021-07-21 01:04:01+00:00,210.0,8.57,207.0,9.86,12.65,47.59359,-54.27349
2021-07-21 01:14:01+00:00,206.0,8.27,204.0,9.3,12.65,47.59359,-54.27349
2021-07-21 01:24:01+00:00,213.0,7.61,219.0,8.96,12.65,47.59359,-54.27349
2021-07-21 01:34:01+00:00,215.0,7.96,208.0,9.16,12.65,47.59359,-54.27349
2021-07-21 01:44:01+00:00,215.0,8.9,216.0,9.62,12.65,47.59359,-54.27349
2021-07-21 01:54:01+00:00,209.0,8.36,210.0,9.68,12.65,47.59359,-54.27349
2021-07-21 02:04:01+00:00,210.0,7.55,214.0,8.63,12.65,47.59359,-54.27349
2021-07-21 02:14:01+00:00,212.0,6.56,210.0,7.53,12.65,47.59359,-54.27349
2021-07-21 02:24:01+00:00,208.0,6.39,213.0,7.2,12.65,47.59359,-54.27349
2021-07-21 02:34:01+00:00,202.0,6.42,204.0,7.15,12.65,47.59359,-54.27349
2021-07-21 02:44:01+00:00,205.0,6.88,206.0,7.73,12.65,47.59359,-54.27349
2021-07-21 02:54:01+00:00,200.0,7.35,202.0,8.43,12.65,47.59359,-54.27349
2021-07-21 03:04:01+00:00,208.0,7.74,212.0,8.83,12.65,47.59359,-54.27349
2021-07-21 03:14:01+00:00,215.0,6.93,215.0,8.3,12.57,47.59359,-54.27349
2021-07-21 03:24:01+00:00,215.0,6.41,215.0,7.17,12.57,47.59359,-54.27349
2021-07-21 03:34:01+00:00,211.0,7.47,213.0,8.48,12.57,47.59359,-54.27349
2021-07-21 03:44:01+00:00,215.0,7.39,214.0,8.22,12.57,47.59359,-54.27349
2021-07-21 03:54:01+00:00,217.0,7.48,218.0,8.46,12.57,47.59359,-54.27349
2021-07-21 04:04:01+00:00,212.0,7.49,214.0,8.32,12.57,47.59359,-54.27349
2021-07-21 04:14:01+00:00,217.0,6.13,219.0,7.02,12.57,47.59359,-54.27349
2021-07-21 04:24:01+00:00,214.0,7.52,215.0,8.47,12.57,47.59359,-54.27349
2021-07-21 04:34:01+00:00,218.0,7.15,216.0,7.97,12.57,47.59359,-54.27349
2021-07-21 04:44:01+00:00,215.0,6.69,221.0,7.52,12.57,47.59359,-54.27349
2021-07-21 04:54:01+00:00,213.0,6.98,214.0,7.71,12.57,47.59359,-54.27349
2021-07-21 05:04:01+00:00,208.0,7.58,206.0,8.45,12.57,47.59359,-54.27349
2021-07-21 05:14:01+00:00,207.0,7.47,205.0,8.33,12.57,47.59359,-54.27349
2021-07-21 05:24:01+00:00,210.0,8.13,214.0,8.91,12.57,47.59359,-54.27349
2021-07-21 05:34:01+00:00,203.0,7.33,204.0,8.13,12.57,47.59359,-54.27349
2021-07-21 05:44:01+00:00,204.0,5.76,203.0,6.55,12.57,47.59359,-54.27349
2021-07-21 05:54:01+00:00,200.0,5.78,202.0,6.29,12.57,47.59359,-54.27349
2021-07-21 06:04:01+00:00,196.0,5.31,196.0,6.33,12.57,47.59359,-54.27349
2021-07-21 06:14:00+00:00,195.0,5.93,196.0,6.57,12.49,47.59359,-54.27349
2021-07-21 06:24:00+00:00,199.0,7.01,197.0,7.85,12.49,47.59359,-54.27349
2021-07-21 06:34:00+00:00,199.0,7.34,202.0,7.77,12.49,47.59359,-54.27349
2021-07-21 06:44:00+00:00,199.0,7.29,201.0,8.5,12.49,47.59359,-54.27349
2021-07-21 06:54:00+00:00,209.0,6.45,210.0,7.22,12.49,47.59359,-54.27349
2021-07-21 07:04:00+00:00,219.0,5.43,223.0,6.23,12.49,47.59359,-54.27349
2021-07-21 07:14:01+00:00,215.0,5.98,218.0,6.67,12.49,47.59359,-54.27349
2021-07-21 07:24:01+00:00,214.0,5.82,215.0,6.32,12.49,47.59359,-54.27349
2021-07-21 07:34:01+00:00,200.0,5.73,200.0,6.06,12.49,47.59359,-54.27349
2021-07-21 07:44:01+00:00,208.0,6.48,209.0,7.06,12.49,47.59359,-54.27349
2021-07-21 07:54:01+00:00,204.0,4.96,205.0,5.6,12.49,47.59359,-54.27349
2021-07-21 08:04:01+00:00,211.0,5.76,210.0,6.72,12.49,47.59359,-54.27349
2021-07-21 08:14:01+00:00,218.0,5.58,221.0,6.32,12.41,47.59359,-54.27349
2021-07-21 08:24:01+00:00,223.0,5.09,227.0,6.04,12.41,47.59359,-54.27349
2021-07-21 08:34:01+00:00,219.0,2.97,223.0,3.34,12.41,47.59359,-54.27349
2021-07-21 08:44:01+00:00,232.0,0.95,219.0,1.29,12.41,47.59359,-54.27349
2021-07-21 08:54:01+00:00,262.0,0.8,234.0,1.04,12.41,47.59359,-54.27349
2021-07-21 09:04:01+00:00,313.0,0.49,324.0,0.75,12.41,47.59359,-54.27349
2021-07-21 09:14:01+00:00,183.0,1.59,188.0,1.81,12.41,47.59359,-54.27349
2021-07-21 09:24:01+00:00,237.0,0.99,240.0,1.1,12.41,47.59359,-54.27349
2021-07-21 09:34:01+00:00,229.0,1.51,223.0,1.86,12.41,47.59359,-54.27349
2021-07-21 09:44:01+00:00,178.0,2.26,175.0,3.05,12.41,47.59359,-54.27349
2021-07-21 09:54:01+00:00,156.0,3.57,157.0,3.72,12.41,47.59359,-54.27349
2021-07-21 10:04:01+00:00,180.0,2.84,180.0,3.39,12.41,47.59359,-54.27349
2021-07-21 10:14:01+00:00,193.0,2.11,193.0,2.2,12.65,47.59359,-54.27349
2021-07-21 10:24:01+00:00,97.0,0.23,83.0,0.34,12.65,47.59359,-54.27349
2021-07-21 10:34:01+00:00,154.0,2.23,156.0,2.29,12.65,47.59359,-54.27349
2021-07-21 10:44:01+00:00,146.0,2.13,146.0,2.2,12.65,47.59359,-54.27349
2021-07-21 10:54:01+00:00,155.0,0.34,160.0,0.39,12.65,47.59359,-54.27349
2021-07-21 11:04:01+00:00,23.0,0.98,22.0,1.07,12.65,47.59359,-54.27349
2021-07-21 11:14:01+00:00,157.0,1.13,159.0,1.31,13.53,47.59359,-54.27349
2021-07-21 11:24:01+00:00,140.0,0.88,139.0,0.93,13.53,47.59359,-54.27349
2021-07-21 11:34:01+00:00,60.0,0.9,59.0,1.31,13.53,47.59359,-54.27349
2021-07-21 11:44:01+00:00,96.0,0.92,73.0,1.25,13.53,47.59359,-54.27349
2021-07-21 11:54:01+00:00,105.0,1.13,120.0,1.43,13.53,47.59359,-54.27349
2021-07-21 12:04:01+00:00,50.0,2.01,50.0,2.21,13.53,47.59359,-54.27349
2021-07-21 12:14:00+00:00,27.0,3.01,29.0,3.24,13.68,47.59359,-54.27349
2021-07-21 12:24:00+00:00,36.0,2.51,36.0,2.67,13.68,47.59359,-54.27349
2021-07-21 12:34:00+00:00,39.0,1.6,31.0,1.84,13.68,47.59359,-54.27349
2021-07-21 12:44:00+00:00,23.0,2.55,21.0,2.8,13.68,47.59359,-54.27349
2021-07-21 12:54:00+00:00,26.0,2.65,30.0,3.0,13.68,47.59359,-54.27349
2021-07-21 13:04:00+00:00,47.0,2.78,44.0,3.38,13.68,47.59359,-54.27349
2021-07-21 13:14:01+00:00,42.0,2.95,41.0,3.29,13.76,47.59359,-54.27349
2021-07-21 13:24:01+00:00,57.0,2.55,55.0,2.95,13.76,47.59359,-54.27349
2021-07-21 13:34:01+00:00,47.0,2.11,45.0,2.37,13.76,47.59359,-54.27349
2021-07-21 13:44:01+00:00,42.0,2.12,43.0,2.34,13.76,47.59359,-54.27349
2021-07-21 13:54:01+00:00,42.0,1.69,38.0,2.13,13.76,47.59359,-54.27349
2021-07-21 14:04:01+00:00,7.0,2.21,11.0,2.67,13.76,47.59359,-54.27349
2021-07-21 14:14:01+00:00,53.0,1.62,38.0,1.81,14.32,47.59359,-54.27349
2021-07-21 14:24:01+00:00,36.0,1.1,26.0,1.42,14.32,47.59359,-54.27349
2021-07-21 14:34:01+00:00,17.0,0.88,12.0,1.15,14.32,47.59359,-54.27349
2021-07-21 14:44:01+00:00,328.0,1.13,328.0,1.25,14.32,47.59359,-54.27349
2021-07-21 14:54:01+00:00,43.0,0.74,46.0,0.92,14.32,47.59359,-54.27349
2021-07-21 15:04:01+00:00,52.0,1.45,54.0,1.69,14.32,47.59359,-54.27349
2021-07-21 15:14:01+00:00,48.0,1.26,48.0,1.46,13.68,47.59359,-54.27349
2021-07-21 15:24:01+00:00,29.0,1.22,32.0,1.42,13.68,47.59359,-54.27349
2021-07-21 15:34:01+00:00,32.0,1.25,33.0,1.59,13.68,47.59359,-54.27349
2021-07-21 15:44:01+00:00,8.0,1.83,20.0,2.29,13.68,47.59359,-54.27349
2021-07-21 15:54:01+00:00,24.0,4.7,32.0,5.96,13.68,47.59359,-54.27349
2021-07-21 16:04:01+00:00,30.0,5.86,32.0,6.2,13.68,47.59359,-54.27349
2021-07-21 16:14:01+00:00,49.0,5.25,51.0,6.17,13.76,47.59359,-54.27349
2021-07-21 16:24:01+00:00,54.0,7.19,52.0,8.25,13.76,47.59359,-54.27349
2021-07-21 16:34:01+00:00,59.0,7.45,57.0,8.16,13.76,47.59359,-54.27349
2021-07-21 16:44:01+00:00,59.0,6.58,57.0,6.97,13.76,47.59359,-54.27349
2021-07-21 16:54:01+00:00,58.0,5.35,58.0,6.02,13.76,47.59359,-54.27349
2021-07-21 17:04:01+00:00,57.0,5.54,58.0,6.39,13.76,47.59359,-54.27349
2021-07-21 17:14:01+00:00,58.0,6.17,60.0,6.9,13.84,47.59359,-54.27349
2021-07-21 17:24:01+00:00,58.0,6.1,60.0,6.7,13.84,47.59359,-54.27349
2021-07-21 17:34:01+00:00,59.0,5.62,61.0,6.63,13.84,47.59359,-54.27349
2021-07-21 17:44:01+00:00,64.0,4.61,69.0,5.39,13.84,47.59359,-54.27349
2021-07-21 17:54:01+00:00,67.0,5.94,71.0,6.8,13.84,47.59359,-54.27349
2021-07-21 18:04:01+00:00,63.0,5.71,64.0,6.56,13.84,47.59359,-54.27349
2021-07-21 18:14:01+00:00,82.0,4.39,77.0,5.94,13.84,47.59359,-54.27349
2021-07-21 18:24:01+00:00,85.0,2.69,78.0,4.41,13.84,47.59359,-54.27349
2021-07-21 18:34:01+00:00,81.0,2.84,76.0,3.86,13.84,47.59359,-54.27349
2021-07-21 18:44:01+00:00,78.0,2.15,98.0,4.72,13.84,47.59359,-54.27349
2021-07-21 18:54:01+00:00,84.0,3.0,99.0,4.57,13.84,47.59359,-54.27349
2021-07-21 19:04:01+00:00,83.0,2.46,93.0,4.16,13.84,47.59359,-54.27349
2021-07-21 19:14:01+00:00,72.0,4.46,67.0,6.16,13.68,47.59359,-54.27349
2021-07-21 19:24:01+00:00,73.0,5.33,71.0,6.18,13.68,47.59359,-54.27349
2021-07-21 19:34:01+00:00,60.0,7.37,57.0,7.99,13.68,47.59359,-54.27349
2021-07-21 19:44:01+00:00,51.0,8.43,47.0,9.52,13.68,47.59359,-54.27349
2021-07-21 19:54:01+00:00,47.0,9.45,46.0,10.54,13.68,47.59359,-54.27349
2021-07-21 20:04:01+00:00,44.0,9.59,47.0,10.71,13.68,47.59359,-54.27349
2021-07-21 20:14:01+00:00,45.0,9.03,44.0,9.97,13.84,47.59359,-54.27349
2021-07-21 20:24:01+00:00,44.0,8.52,40.0,9.48,13.84,47.59359,-54.27349
2021-07-21 20:34:01+00:00,45.0,8.47,41.0,9.47,13.84,47.59359,-54.27349
2021-07-21 20:44:01+00:00,45.0,8.86,45.0,10.18,13.84,47.59359,-54.27349
2021-07-21 20:54:01+00:00,43.0,9.01,40.0,9.84,13.84,47.59359,-54.27349
2021-07-21 21:04:01+00:00,63.0,6.8,64.0,7.57,13.84,47.59359,-54.27349
2021-07-21 21:14:01+00:00,59.0,6.97,58.0,7.99,13.76,47.59359,-54.27349
2021-07-21 21:24:01+00:00,53.0,7.33,53.0,8.06,13.76,47.59359,-54.27349
2021-07-21 21:34:01+00:00,47.0,9.21,47.0,10.48,13.76,47.59359,-54.27349
2021-07-21 21:44:01+00:00,47.0,9.05,49.0,10.42,13.76,47.59359,-54.27349
2021-07-21 21:54:01+00:00,43.0,8.65,45.0,9.79,13.76,47.59359,-54.27349
2021-07-21 22:04:01+00:00,48.0,9.18,48.0,9.92,13.76,47.59359,-54.27349
2021-07-21 22:14:01+00:00,51.0,9.01,49.0,10.08,13.37,47.59359,-54.27349
2021-07-21 22:24:01+00:00,49.0,8.66,49.0,9.69,13.37,47.59359,-54.27349
2021-07-21 22:34:01+00:00,49.0,8.66,51.0,9.89,13.37,47.59359,-54.27349
2021-07-21 22:44:01+00:00,49.0,8.01,48.0,9.44,13.37,47.59359,-54.27349
2021-07-21 22:54:01+00:00,53.0,7.76,53.0,8.85,13.37,47.59359,-54.27349
2021-07-21 23:04:01+00:00,52.0,7.32,52.0,7.81,13.37,47.59359,-54.27349
2021-07-21 23:14:01+00:00,55.0,6.73,56.0,7.14,12.81,47.59359,-54.27349
2021-07-21 23:24:01+00:00,83.0,4.53,95.0,6.95,12.81,47.59359,-54.27349
2021-07-21 23:34:01+00:00,85.0,4.32,71.0,5.71,12.81,47.59359,-54.27349
2021-07-21 23:44:01+00:00,77.0,4.81,75.0,6.49,12.81,47.59359,-54.27349
2021-07-21 23:54:01+00:00,73.0,7.1,71.0,8.34,12.81,47.59359,-54.27349
